Location: Unspecified
(0.0000°N, 0.0000°E)
Time: 17:20:08
(UTC+00:00)

STARLINK 1042 - Pass Details

Date: 19 January 2020
Orbit: 549 x 551 km, 53.0° (Epoch: 23 January)

Event Time Altitude Azimuth Distance (km) Brightness Sun altitude
Rises 18:35:06 0° 300° (WNW) 2,719 7.8 -5.7°
Reaches altitude 10° 18:37:47 10° 283° (WNW) 1,831 7.3 -6.4°
Maximum altitude 18:40:52 20° 235° (SW) 1,312 6.8 -7.1°
Drops below altitude 10° 18:43:59 10° 187° (S) 1,843 6.7 -7.8°
Sets 18:46:42 0° 170° (S) 2,743 7.3 -8.4°
